Location: Firdgum
(53.2488°N, 5.5615°E)
Time: 02:52:14
(UTC+00:00)

FENGYUN 3A - Pass Details

Date: 08 December 2019
Orbit: 823 x 837 km, 98.4° (Epoch: 19 January)

Event Time Altitude Azimuth Distance (km) Brightness Sun altitude
Rises 05:52:42 0° 12° (NNE) 3,386 6.8 -14.7°
Reaches altitude 10° 05:55:06 10° 9° (N) 2,446 6.0 -14.3°
Maximum altitude 06:00:22 55° 293° (WNW) 992 3.7 -13.6°
Drops below altitude 10° 06:05:35 10° 217° (SW) 2,423 5.9 -12.8°
Sets 06:07:58 0° 213° (SSW) 3,351 6.7 -12.5°
